Home   Weather   Fetsund   Past weeks

Flag for Norway Past Weather in Fetsund, Norway — Yesterday and Last 2 Weeks

Now
51 °F

Cool.


Feels Like: 51 °F
Forecast: 47 / 63 °F
Wind: 2 mph from West

Location: Oslo-Blindern

Current Time: Jun 25, 2017 at 7:21:59 am

Latest Report: Jun 25, 2017 at 6:00 am


Visibility: N/A

Pressure: 29.35 "Hg

Humidity: 71%

Dew Point: 42 °F

Location of FetsundLocation

Past Weather in Fetsund — Graph

°F

Fetsund Temperature Yesterday

Maximum temperature yesterday: 70 °F (at 5:00 pm)
Minimum temperature yesterday: 56 °F (at 4:00 am)
Average temperature yesterday: 62 °F

High & Low Weather Summary for the Past Weeks

 TemperatureHumidityPressure
High78 °F (Jun 18, 6:00 pm)100% (Jun 11, 1:00 pm)30.03 "Hg (Jun 11, 1:00 pm)
Low47 °F (Jun 25, 5:00 am)31% (Jun 20, 4:00 pm)29.29 "Hg (Jun 12, 3:00 pm)
Average61 °F69%29.76 "Hg
* Reported Jun 10 6:00 am — Jun 25 6:00 am, Fetsund. Weather by CustomWeather, © 2017

Note: Actual official high and low records may vary slightly from our data, if they occured in-between our weather recording intervals... More about our weather records

Advertising

Fetsund Weather History for the Previous 24 Hours

Scroll right to see more
 ConditionsComfort  
Time TempWeatherWind HumidityBarometerVisibility
6:00 am
Sun, Jun 25
51 °FCool.2 mph71%29.35 "HgN/A
5:00 am47 °FCool.1 mph81%29.35 "Hg31 mi
3:00 am53 °FCool.2 mph59%29.38 "Hg31 mi
2:00 am55 °FCool.3 mph55%29.38 "Hg31 mi
1:00 am56 °FRefreshingly cool.1 mph50%29.38 "HgN/A
12:00 am56 °FRefreshingly cool.2 mph52%29.38 "Hg31 mi
11:00 pm
Sat, Jun 24
58 °FRefreshingly cool.2 mph45%29.38 "Hg31 mi
10:00 pm62 °FRefreshingly cool.3 mph44%29.35 "Hg31 mi
9:00 pm63 °FMild.3 mph44%29.35 "Hg31 mi
8:00 pm64 °FPartly sunny.5 mph48%29.35 "Hg40 mi
7:00 pm68 °FMild.5 mph39%29.35 "Hg22 mi
6:00 pm69 °FMild.2 mph31%29.35 "HgN/A
5:00 pm70 °FPartly sunny.5 mph31%29.35 "Hg40 mi
4:00 pm69 °FMild.5 mph35%29.38 "Hg28 mi
3:00 pm69 °FMild.7 mph32%29.38 "Hg19 mi
2:00 pm69 °FPassing clouds.5 mph37%29.38 "Hg43 mi
1:00 pm68 °FMild.5 mph41%29.38 "HgN/A
12:00 pm67 °FMild.3 mph50%29.41 "HgN/A
11:00 am63 °FPassing clouds.2 mph53%29.41 "Hg47 mi
10:00 am58 °FCool.3 mph69%29.44 "HgN/A
9:00 am58 °FCool.3 mph76%29.44 "Hg28 mi
8:00 am58 °FOvercast.2 mph80%29.44 "Hg47 mi
7:00 am56 °FCool.2 mph97%29.44 "Hg25 mi
Weather by CustomWeather, © 2017

See weather overviewHow to use our weather pages